Weather History for LIRQ - March, 2013

Change the Weather History Date:

Thursday, March 21, 2013

  Actual Average Record
Temperature  
Mean Temperature 50 °F -  
Max Temperature 62 °F 64 °F 73 °F (2012)
Min Temperature 37 °F 44 °F 30 °F (1999)
Degree Days  
Heating Degree Days 16    
Moisture  
Dew Point 39 °F    
Average Humidity 74    
Maximum Humidity 100    
Minimum Humidity 27    
Precipitation  
Precipitation 0.00 in 0.10 in - ()
Sea Level Pressure  
Sea Level Pressure 29.87 in    
Wind  
Wind Speed 4 mph ()    
Max Wind Speed 12 mph    
Max Gust Speed -    
Visibility 2.4 miles    
Events Fog    
Averages and records for this station are not official NWS values.
T = Trace of Precipitation, MM = Missing Value Source: Averaged Metar Reports

Daily Weather History Graph

Daily Weather History Graph

Search for Another Location

Airport or City:

Trip Planner

Search our weather history database for the weather conditions in past years. The results will help you decide how hot, cold, wet, or windy it might be!

Date:

Astronomy

Mar. 21, 2013 Rise Set
Actual Time 6:16 AM CET 6:28 PM CET
Civil Twilight 5:47 AM CET 6:57 PM CET
Nautical Twilight 5:14 AM CET 7:31 PM CET
Astronomical Twilight 4:39 AM CET 8:05 PM CET
Moon 12:33 PM CET (3/21) 2:37 AM CET (3/21)
Length of Visible Light 13h 09m
Length of Day
12h 12m
Waxing Gibbous, 66% of the Moon is Illuminated
Mar 21
Waxing Gibbous
Mar 27
Full
Apr 3
Last Quarter
Apr 10
New
Apr 18
First Quarter

Hourly Weather History & Observations

Time (CET) Temp. Windchill Dew Point Humidity Pressure Visibility Wind Dir Wind Speed Gust Speed Precip Events Conditions
12:20 AM 48.2 °F - 44.6 °F 87% 29.74 in 6.2 mi SW 3.5 mph - N/A   Mostly Cloudy
12:50 AM 46.4 °F 44.3 °F 44.6 °F 93% 29.77 in 6.2 mi SW 4.6 mph - N/A   Mostly Cloudy
2:50 AM 42.8 °F - 41.0 °F 93% 29.77 in 6.2 mi Variable 1.2 mph - N/A   Scattered Clouds
3:20 AM 41.0 °F - 39.2 °F 93% 29.77 in 4.3 mi Calm Calm - N/A Fog Shallow Fog
3:50 AM 39.2 °F - 39.2 °F 100% 29.77 in 4.3 mi Variable 1.2 mph - N/A Fog Fog
4:20 AM 39.2 °F - 37.4 °F 93% 29.80 in 0.9 mi Variable 1.2 mph - N/A Fog Patches of Fog
4:50 AM 37.4 °F - 35.6 °F 93% 29.80 in 3.1 mi Calm Calm - N/A Fog Shallow Fog
5:20 AM 39.2 °F - 37.4 °F 93% 29.83 in 3.1 mi Variable 2.3 mph - N/A Fog Fog
5:50 AM 37.4 °F - 35.6 °F 93% 29.83 in 1.2 mi Variable 1.2 mph - N/A Fog Patches of Fog
6:20 AM 37.4 °F 34.9 °F 37.4 °F 100% 29.83 in 0.2 mi Variable 3.5 mph - N/A Fog Fog
6:50 AM 37.4 °F - 37.4 °F 100% 29.86 in 0.1 mi Variable 2.3 mph - N/A Fog Fog
7:20 AM 39.2 °F - 39.2 °F 100% 29.86 in 0.2 mi Variable 2.3 mph - N/A Fog Fog
7:50 AM 42.8 °F - 42.8 °F 100% 29.86 in 0.3 mi Variable 2.3 mph - N/A Fog Patches of Fog
8:20 AM 42.8 °F - 42.8 °F 100% 29.89 in 0.9 mi Variable 2.3 mph - N/A Fog Patches of Fog
8:50 AM 42.8 °F 40.1 °F 42.8 °F 100% 29.89 in 0.3 mi WNW 4.6 mph - N/A Fog Patches of Fog
9:20 AM 44.6 °F 42.2 °F 44.6 °F 100% 29.89 in 1.6 mi NW 4.6 mph - N/A Fog Patches of Fog
9:50 AM 46.4 °F 45.2 °F 44.6 °F 93% 29.89 in 2.5 mi WNW 3.5 mph - N/A   Scattered Clouds
10:20 AM 48.2 °F - 46.4 °F 93% 29.89 in - WNW 3.5 mph - N/A   Clear
10:50 AM 51.8 °F - 46.4 °F 82% 29.89 in - Variable 2.3 mph - N/A   Clear
11:20 AM 53.6 °F - 44.6 °F 72% 29.89 in - Variable 3.5 mph - N/A   Clear
11:50 AM 57.2 °F - 42.8 °F 59% 29.89 in - Variable 2.3 mph - N/A   Clear
12:20 PM 59.0 °F - 37.4 °F 45% 29.89 in - Variable 2.3 mph - N/A   Clear
12:50 PM 59.0 °F - 35.6 °F 42% 29.89 in - West 2.3 mph - N/A   Clear
1:20 PM 59.0 °F - 35.6 °F 42% 29.86 in - WSW 5.8 mph - N/A   Clear
1:50 PM 60.8 °F - 35.6 °F 39% 29.86 in - SW 5.8 mph - N/A   Clear
2:20 PM 60.8 °F - 37.4 °F 42% 29.86 in - WSW 5.8 mph - N/A   Clear
2:50 PM 60.8 °F - 26.6 °F 27% 29.86 in - SW 8.1 mph - N/A   Clear
3:20 PM 62.6 °F - 32.0 °F 32% 29.86 in - WSW 9.2 mph - N/A   Clear
3:50 PM 60.8 °F - 26.6 °F 27% 29.86 in - WSW 11.5 mph - N/A   Clear
4:20 PM 59.0 °F - 30.2 °F 34% 29.86 in - WSW 11.5 mph - N/A   Clear
4:50 PM 57.2 °F - 37.4 °F 48% 29.89 in - WSW 10.4 mph - N/A   Clear
5:20 PM 59.0 °F - 35.6 °F 42% 29.89 in - West 8.1 mph - N/A   Clear
5:50 PM 57.2 °F - 41.0 °F 55% 29.89 in - WSW 9.2 mph - N/A   Clear
6:20 PM 55.4 °F - 39.2 °F 54% 29.89 in - SW 8.1 mph - N/A   Clear
6:50 PM 53.6 °F - 41.0 °F 62% 29.92 in - SW 10.4 mph - N/A   Clear
7:20 PM 53.6 °F - 42.8 °F 67% 29.92 in - SSW 9.2 mph - N/A   Clear
7:50 PM 51.8 °F - 42.8 °F 71% 29.95 in - SW 5.8 mph - N/A   Clear
8:20 PM 50.0 °F - 41.0 °F 71% 29.95 in - Variable 2.3 mph - N/A   Clear
8:50 PM 46.4 °F 44.3 °F 41.0 °F 81% 29.95 in - East 4.6 mph - N/A   Clear
9:20 PM 44.6 °F 41.4 °F 39.2 °F 81% 29.95 in - East 5.8 mph - N/A   Clear
9:50 PM 44.6 °F 40.7 °F 41.0 °F 87% 29.95 in - East 6.9 mph - N/A   Clear
10:20 PM 44.6 °F 40.2 °F 41.0 °F 87% 29.95 in - East 8.1 mph - N/A   Clear
10:50 PM 44.6 °F 40.7 °F 41.0 °F 87% 29.95 in - East 6.9 mph - N/A   Clear
11:20 PM 42.8 °F 39.3 °F 39.2 °F 87% 29.95 in - East 5.8 mph - N/A   Clear
11:50 PM 42.8 °F 39.3 °F 39.2 °F 87% 29.95 in - East 5.8 mph - N/A   Clear